Wind_Speed
12 12 12 12 11 11 12 12 12 12 12 11 12 12 12 12 12 11 11 11 11 11 10 10 10 10 9 9 8 8 7 7 6 6 6 6 7 7 7 6 6 6 5
13 13 13 13 12 12 12 12 13 13 13 13 13 13 13 13 13 13 13 12 12 12 12 12 12 11 11 10 10 10 9 9 8 8 8 8 8 7 8 8 7 7 7
14 14 14 14 13 13 13 13 13 14 14 14 14 14 15 14 14 14 14 14 14 14 14 13 13 13 13 12 12 12 11 11 10 10 9 9 9 9 9 9 9 9 8
16 16 15 15 15 15 15 14 14 14 15 16 16 16 16 16 16 15 15 15 15 16 15 15 15 15 15 14 14 14 13 13 12 12 11 10 10 10 10 10 10 11 11
17 17 17 17 16 16 16 16 16 16 16 17 17 17 17 17 17 17 17 16 16 17 17 16 16 16 16 16 16 15 15 14 14 13 13 12 12 12 11 11 11 12 12
19 19 19 18 18 18 18 18 18 18 18 18 18 19 19 19 19 19 18 18 18 18 18 18 17 18 17 18 17 17 17 17 16 15 15 14 14 14 13 13 13 13 13
19 20 20 20 20 20 20 20 20 20 20 20 20 20 20 20 20 20 19 20 19 19 19 19 19 19 19 19 19 18 18 18 18 17 17 16 16 15 15 15 15 14 14
21 21 22 22 22 21 21 21 21 21 21 21 21 21 21 21 20 21 20 20 20 19 19 20 20 20 20 20 20 20 19 19 19 19 19 18 17 17 17 17 16 16 16
23 23 23 23 23 23 22 22 22 22 22 22 22 22 22 22 22 22 22 22 21 21 21 21 21 21 21 21 21 21 21 21 21 20 20 20 20 19 19 18 18 18 17
24 24 24 24 24 24 24 24 24 24 23 23 23 23 23 23 23 23 23 23 24 23 22 22 23 23 22 22 22 23 23 23 23 23 22 21 21 21 21 20 20 19 19
25 26 26 26 26 26 26 26 26 25 25 25 25 25 25 25 25 25 25 25 25 26 25 24 24 24 25 24 24 24 24 25 25 25 24 23 23 23 22 22 21 21 20
27 27 28 28 28 28 29 29 28 28 27 27 27 27 27 27 27 27 27 27 27 27 27 26 26 26 26 27 26 26 26 26 26 26 25 25 25 25 24 24 23 23 22
28 28 28 29 29 29 30 30 30 29 29 29 29 29 29 29 29 29 29 29 29 29 28 28 28 28 28 28 28 28 28 28 28 28 27 27 27 27 26 26 25 25 24
28 28 29 30 31 31 31 31 31 31 31 31 31 31 31 31 31 31 32 32 32 31 31 30 30 30 30 30 29 29 29 30 30 30 30 30 29 29 28 28 27 27 27
30 30 31 31 32 33 34 34 34 34 34 34 33 34 33 33 33 34 34 35 35 34 33 33 33 33 32 32 31 31 31 31 31 30 31 31 31 31 30 30 30 30 29
33 33 33 33 34 35 36 37 37 37 37 37 36 36 36 36 36 35 36 36 37 37 37 36 35 35 34 34 34 34 33 33 33 32 32 33 33 33 32 32 33 32 32
35 35 35 36 37 37 38 39 39 39 39 40 39 39 39 38 38 38 38 38 38 39 39 38 38 38 37 37 37 36 36 36 35 35 35 35 35 35 34 34 34 34 34
36 37 37 38 38 39 40 41 42 42 42 42 43 43 42 42 41 41 41 41 41 41 41 41 40 40 40 40 39 39 39 38 38 37 37 37 37 37 37 36 36 36 36
37 38 39 40 40 41 42 43 44 45 45 45 45 45 45 45 45 45 45 44 44 44 43 43 43 43 42 42 42 42 42 41 41 40 39 39 39 39 39 39 38 38 38
38 39 41 41 42 43 44 46 47 47 48 48 48 48 48 48 48 48 48 48 47 47 47 47 46 45 45 45 44 44 44 44 43 43 42 41 41 42 41 41 41 41 40
40 41 42 43 44 45 46 47 49 50 50 50 51 51 51 51 51 51 51 51 50 50 50 49 49 48 48 48 48 47 47 46 45 45 45 44 44 44 44 43 43 42 42
42 43 44 44 45 46 47 48 50 51 52 53 53 54 53 54 54 54 53 53 53 53 53 53 52 51 51 51 51 51 50 49 48 47 47 47 46 46 46 46 46 45 44
43 44 44 45 46 48 49 49 50 52 53 54 55 55 55 56 57 57 57 57 57 56 56 56 55 55 54 54 54 54 53 52 51 50 49 49 49 49 48 48 48 47 47
43 43 44 45 46 47 49 50 51 52 54 55 55 55 56 57 58 59 59 59 59 58 57 57 57 57 56 56 56 56 56 56 54 53 52 51 51 51 50 50 49 49 49
43 43 44 45 45 46 48 50 51 53 54 55 56 56 56 57 58 59 60 60 60 59 58 58 58 58 58 57 57 57 57 57 57 56 54 53 53 53 53 52 51 51 50
43 44 44 45 46 47 48 49 51 52 54 56 57 58 58 58 58 59 60 60 60 60 60 59 59 59 59 59 58 58 58 57 57 57 57 55 54 54 54 54 53 53 52
Wind_Direction
246 248 250 251 253 254 254 253 253 251 248 248 246 243 243 246 248 247 247 249 249 248 249 247 245 241 241 240 237 235 236 232 230 228 227 229 230 230 231 229 229 227 227
247 247 248 251 253 254 254 253 252 252 250 248 248 245 244 246 247 247 248 250 251 250 251 251 250 248 246 245 245 243 241 238 237 236 237 237 238 239 240 238 237 236 236
249 248 248 249 250 251 253 255 255 253 253 251 250 249 247 246 247 247 248 250 251 251 252 252 252 251 250 248 246 245 244 242 240 241 243 245 244 245 245 242 241 242 241
250 249 249 249 249 250 251 253 254 255 255 254 252 251 251 249 248 248 249 251 252 252 252 253 253 252 252 250 248 246 245 243 242 243 246 248 247 249 249 248 246 246 246
249 249 250 250 251 251 251 252 254 254 256 256 255 252 252 251 250 250 251 252 253 254 253 254 254 253 253 252 251 249 247 246 244 244 246 247 248 250 251 250 250 250 250
249 250 251 251 251 252 251 251 254 255 256 256 258 255 252 252 251 251 251 251 253 253 253 254 254 254 253 252 252 251 249 248 248 246 247 248 249 250 251 251 251 252 253
251 250 252 253 253 253 253 252 253 256 257 257 258 259 255 253 252 252 252 253 254 255 254 254 254 255 254 253 252 252 251 249 249 249 248 249 251 252 251 251 252 251 251
252 251 252 253 253 253 253 254 254 254 256 258 258 260 259 254 252 252 253 253 254 255 256 255 254 254 254 253 252 251 251 249 249 250 249 249 250 251 251 252 252 251 250
253 252 251 252 253 253 253 253 254 254 255 257 258 258 259 257 254 254 255 254 253 255 256 256 255 254 254 253 252 252 251 250 249 249 250 249 250 250 251 251 251 250 250
255 254 253 252 253 254 254 254 254 255 255 256 258 259 259 259 256 255 256 256 256 256 257 257 257 256 254 254 253 252 252 251 249 250 250 250 250 250 250 250 249 249 249
256 255 254 253 252 253 254 255 255 256 256 256 257 259 259 260 259 257 257 257 257 258 257 258 258 257 257 256 256 254 253 253 252 251 252 251 250 249 251 251 251 250 250
257 256 255 255 254 254 255 256 256 257 257 257 258 259 260 260 261 259 258 258 258 258 258 258 258 258 258 257 257 257 256 255 253 253 253 253 253 252 251 251 252 252 252
258 258 257 256 255 254 254 254 256 257 257 258 258 260 261 261 262 261 259 258 259 259 259 258 258 259 259 259 259 258 256 255 254 254 254 253 253 253 252 252 251 252 252
260 260 260 258 256 255 255 255 255 255 257 258 259 260 261 262 263 263 262 260 259 259 259 259 259 259 260 259 258 258 257 257 255 255 254 253 253 253 252 251 251 251 251
261 261 261 261 259 257 256 256 256 256 257 259 260 261 261 262 263 263 265 262 260 260 260 260 260 259 259 259 259 258 257 257 257 256 255 254 253 252 252 252 251 251 251
263 262 262 261 261 260 258 257 257 256 257 258 259 261 262 263 263 264 264 265 262 260 260 260 261 261 260 259 259 259 258 257 256 256 256 255 254 253 253 253 253 251 251
264 264 263 262 262 261 260 258 258 258 258 259 260 260 262 263 263 264 264 265 264 262 261 261 261 261 261 260 260 259 259 258 257 256 255 255 255 254 254 254 254 253 252
266 265 264 263 263 263 262 260 259 259 259 259 260 261 261 263 263 264 265 264 265 264 262 261 261 261 261 261 261 260 260 259 258 257 256 255 255 254 254 254 254 253 252
267 266 265 265 265 264 263 262 260 259 260 260 261 262 262 263 263 263 264 264 264 264 264 263 262 261 261 261 261 261 260 260 259 258 257 255 255 254 254 253 252 252 252
268 268 267 266 267 266 265 263 261 261 260 260 261 262 262 263 263 263 263 264 265 265 265 264 262 262 261 261 260 261 261 260 259 259 258 256 255 254 254 253 252 251 251
269 270 269 268 268 267 266 265 264 262 262 262 261 262 262 262 262 263 263 263 263 264 265 264 262 262 262 261 260 260 260 259 259 258 258 257 256 255 254 253 253 252 251
270 270 270 269 269 268 268 266 265 263 263 262 262 262 262 262 262 262 263 264 265 265 265 264 264 264 263 262 261 260 259 258 258 258 257 256 256 255 254 255 253 252 252
271 271 270 270 270 270 269 268 266 265 264 263 262 262 262 262 262 263 263 265 265 265 265 264 264 264 263 263 262 261 260 258 258 257 257 256 255 255 254 254 254 253 252
272 272 271 271 271 272 271 270 268 266 265 265 264 263 263 263 263 263 264 264 265 265 264 264 264 263 263 263 262 262 261 260 257 256 255 255 255 255 254 254 254 253 252
273 273 273 272 273 273 273 272 270 268 267 266 265 264 264 264 264 264 264 263 264 264 264 263 263 263 263 262 262 261 261 260 259 257 255 254 255 255 255 254 254 253 253
275 274 274 274 275 275 275 274 272 270 268 267 266 265 264 264 264 263 263 262 262 262 262 262 262 262 262 262 261 261 259 258 258 257 255 254 253 254 254 254 254 254 253
Height
5849 5848 5849 5849 5849 5850 5850 5850 5851 5851 5851 5852 5852 5853 5853 5854 5854 5855 5855 5855 5855 5855 5856 5856 5856 5856 5857 5857 5857 5857 5858 5858 5858 5858 5859 5859 5859 5860 5860 5860 5860 5860 5860
5846 5846 5847 5847 5847 5847 5848 5848 5849 5849 5849 5850 5850 5851 5851 5852 5852 5853 5853 5853 5854 5854 5854 5854 5855 5855 5855 5855 5856 5856 5856 5857 5857 5857 5858 5858 5858 5858 5859 5859 5859 5859 5859
5843 5843 5844 5844 5845 5845 5846 5846 5846 5847 5847 5847 5848 5849 5849 5850 5850 5851 5851 5851 5851 5852 5852 5852 5853 5853 5854 5854 5854 5854 5855 5855 5856 5856 5856 5857 5857 5857 5857 5858 5858 5858 5858
5840 5841 5841 5842 5842 5843 5843 5844 5844 5844 5845 5845 5846 5846 5847 5847 5848 5848 5848 5849 5849 5850 5850 5850 5851 5851 5851 5852 5852 5853 5853 5853 5854 5854 5855 5855 5855 5855 5856 5856 5856 5856 5857
5837 5837 5838 5839 5839 5840 5840 5841 5841 5842 5842 5843 5843 5844 5844 5845 5845 5845 5846 5846 5847 5847 5847 5848 5848 5848 5849 5849 5850 5850 5851 5851 5852 5852 5853 5853 5853 5854 5854 5854 5854 5854 5855
5833 5834 5834 5835 5836 5836 5837 5838 5838 5838 5839 5840 5840 5841 5841 5842 5842 5842 5843 5843 5843 5844 5844 5845 5845 5845 5846 5846 5847 5847 5848 5848 5849 5850 5850 5851 5851 5851 5852 5852 5852 5852 5853
5829 5830 5830 5831 5832 5833 5833 5834 5834 5835 5835 5836 5836 5837 5837 5838 5838 5839 5839 5840 5840 5840 5841 5841 5842 5842 5843 5843 5844 5845 5845 5845 5846 5847 5847 5848 5848 5849 5849 5849 5850 5850 5850
5824 5825 5826 5826 5827 5828 5829 5830 5831 5831 5832 5832 5832 5833 5833 5834 5834 5835 5835 5836 5836 5837 5837 5838 5838 5839 5839 5840 5840 5841 5842 5842 5843 5844 5844 5845 5845 5846 5846 5846 5847 5847 5847
5819 5820 5821 5821 5822 5823 5824 5825 5826 5827 5827 5828 5828 5829 5829 5829 5830 5831 5831 5832 5832 5833 5833 5834 5834 5835 5835 5836 5836 5837 5838 5838 5839 5840 5841 5841 5842 5842 5843 5843 5843 5844 5844
5813 5814 5815 5816 5817 5818 5819 5820 5821 5822 5823 5823 5824 5824 5825 5825 5826 5826 5827 5828 5828 5828 5829 5829 5830 5830 5831 5831 5832 5833 5833 5834 5835 5836 5837 5837 5838 5838 5839 5839 5840 5840 5841
5807 5808 5809 5810 5812 5813 5814 5815 5816 5817 5817 5818 5819 5819 5820 5821 5821 5822 5822 5823 5823 5824 5824 5825 5825 5826 5826 5827 5827 5828 5829 5830 5830 5831 5832 5833 5833 5834 5834 5835 5836 5836 5837
5801 5802 5803 5804 5805 5806 5808 5809 5810 5811 5812 5813 5813 5814 5815 5815 5816 5816 5817 5817 5818 5818 5819 5819 5820 5821 5821 5821 5822 5823 5823 5824 5825 5826 5827 5828 5828 5829 5830 5830 5831 5832 5833
5794 5795 5796 5797 5798 5799 5801 5802 5803 5804 5805 5806 5807 5808 5809 5809 5810 5810 5811 5811 5812 5812 5813 5813 5814 5815 5815 5816 5816 5817 5818 5819 5820 5820 5821 5822 5823 5824 5824 5825 5826 5827 5828
5787 5788 5789 5790 5791 5792 5793 5794 5796 5797 5798 5799 5800 5801 5802 5802 5803 5804 5804 5805 5805 5806 5806 5807 5808 5808 5809 5809 5810 5811 5811 5812 5813 5814 5815 5816 5816 5817 5818 5819 5821 5822 5822
5780 5781 5781 5782 5783 5784 5785 5786 5788 5789 5790 5791 5792 5793 5794 5795 5795 5796 5797 5797 5798 5798 5799 5800 5800 5801 5802 5802 5803 5804 5804 5805 5806 5807 5808 5809 5809 5810 5811 5813 5814 5815 5816
5772 5773 5773 5774 5775 5775 5776 5778 5779 5780 5782 5783 5784 5785 5786 5786 5787 5788 5788 5789 5789 5790 5791 5791 5792 5793 5794 5794 5795 5796 5797 5798 5798 5799 5800 5801 5802 5803 5804 5806 5807 5808 5809
5763 5764 5764 5765 5766 5766 5767 5768 5769 5771 5772 5773 5774 5775 5776 5777 5778 5779 5779 5780 5780 5781 5781 5782 5783 5784 5785 5786 5787 5787 5788 5789 5790 5791 5792 5793 5794 5795 5797 5798 5799 5800 5802
5754 5754 5755 5755 5755 5756 5757 5758 5759 5760 5761 5763 5764 5765 5766 5767 5768 5768 5769 5770 5770 5771 5771 5772 5773 5774 5775 5776 5777 5778 5779 5780 5781 5782 5783 5784 5785 5786 5788 5789 5790 5792 5793
5744 5744 5744 5744 5745 5745 5746 5746 5747 5748 5750 5751 5752 5754 5755 5756 5756 5757 5758 5759 5759 5760 5761 5762 5762 5763 5765 5765 5766 5768 5769 5770 5771 5772 5774 5775 5776 5777 5778 5780 5781 5783 5784
5734 5734 5734 5734 5734 5734 5734 5734 5734 5735 5737 5738 5740 5741 5742 5743 5744 5745 5746 5747 5747 5748 5749 5750 5751 5752 5753 5754 5755 5756 5757 5759 5760 5761 5763 5764 5766 5767 5769 5770 5772 5773 5775
5723 5723 5723 5722 5722 5722 5722 5722 5722 5723 5724 5725 5726 5727 5728 5730 5730 5731 5733 5733 5734 5735 5736 5737 5738 5739 5740 5741 5743 5744 5746 5747 5748 5750 5751 5753 5755 5756 5758 5759 5761 5763 5765
5712 5711 5711 5710 5709 5709 5709 5708 5709 5710 5710 5711 5712 5712 5713 5715 5716 5717 5718 5719 5720 5721 5722 5723 5724 5726 5727 5728 5729 5731 5733 5735 5736 5738 5739 5741 5742 5744 5746 5748 5750 5752 5754
5700 5699 5698 5697 5696 5695 5695 5694 5694 5695 5695 5696 5696 5697 5698 5699 5700 5701 5703 5704 5705 5706 5707 5708 5709 5711 5712 5713 5714 5716 5718 5721 5723 5726 5727 5728 5730 5732 5734 5735 5737 5740 5742
5688 5686 5685 5684 5683 5682 5681 5680 5679 5679 5680 5680 5680 5681 5682 5682 5683 5684 5686 5687 5689 5690 5692 5693 5694 5695 5697 5698 5699 5700 5702 5704 5707 5711 5714 5715 5716 5718 5721 5723 5725 5727 5729
5675 5674 5672 5671 5670 5668 5666 5665 5664 5663 5664 5664 5664 5665 5666 5666 5667 5667 5669 5670 5672 5674 5675 5676 5678 5679 5680 5682 5683 5685 5686 5688 5690 5693 5698 5701 5703 5705 5706 5709 5711 5714 5716
5662 5661 5659 5657 5656 5654 5652 5650 5649 5648 5648 5648 5648 5648 5649 5649 5649 5650 5651 5653 5654 5656 5658 5659 5661 5662 5664 5665 5667 5668 5670 5672 5674 5677 5680 5685 5687 5690 5692 5694 5697 5700 5703